Notices

What's New in latest Release from April 7th, 2021:

- Updated Glossary, including Speed of Maximum Gust, and Total Hourly Precipitation

- Updated national and regional climate services offices contacts and prices information

- Addition of station inventory lists for 1981-2010, 1971-2000, and 1961-1990 Normals.

If you haven't already, please take our survey and provide feedback about our website: https://eccc.sondage-survey.ca/f/LanguageSelection.aspx?s=442ca660-fcf1-47c0-95a9-59707d6fd709

Hourly Data Report for August 14, 2015

IQALUIT CLIMATE
NUNAVUT

63°44'50.000" N
68°32'40.000" W
33.50 m
2402592
71321
XFB

Download Data

Hourly Data (August 2015)
Hourly Data Report for August 14, 2015
TIME
LST
Temp Definition
°C
Dew Point Definition
°C
Rel Hum Definition
%
Precip. Amount Definition
mm

Wind Dir Definition
10's deg

Wind Spd Definition
km/h
Visibility Definition
km
Stn Press Definition
kPa
Hmdx Definition


Wind Chill Definition


Weather Definition


00:00 5.1 4.2 93 0.0 16 16   99.94     LegendNANA
01:00 3.9 3.5 97 0.0 17 15   99.90     LegendNANA
02:00 2.1 1.9 99 0.0 15 14   99.88     LegendNANA
03:00 1.9 1.8 99 0.0 16 9   99.85     LegendNANA
04:00 2.5 2.5 99 0.0 14 6   99.73     LegendNANA
05:00 2.3 2.2 100 0.0 12 10   99.72     LegendNANA
06:00 2.1 2.0 100 0.0 15 21   99.68     LegendNANA
07:00 2.4 2.3 99 0.0 15 16   99.60     LegendNANA
08:00 3.6 3.3 98 0.0 15 11   99.59     LegendNANA
09:00 3.9 2.9 94 0.0 18 8   99.60     LegendNANA
10:00 2.9 1.9 93 0.0 17 14   99.64     LegendNANA
11:00 3.8 2.6 92 0.0 18 6   99.69     LegendNANA
12:00 3.7 2.8 94 0.0 14 6   99.71     LegendNANA
13:00 4.3 3.7 96 0.0 16 6   99.74     LegendNANA
14:00 4.1 3.4 95 0.0 15 8   99.78     LegendNANA
15:00 4.2 3.8 97 0.0 14 7   99.80     LegendNANA
16:00 4.8 4.4 97 0.0 36 1   99.84     LegendNANA
17:00 5.2 4.6 96 0.0 30 12   99.91     LegendNANA
18:00 7.4 6.5 94 0.0 32 11   99.93     LegendNANA
19:00 8.5 7.0 91 0.0 33 19   99.97     LegendNANA
20:00 7.9 5.9 87 0.0 33 22   100.03     LegendNANA
21:00 7.3 4.7 84 0.0 32 20   100.08     LegendNANA
22:00 5.1 3.4 89 0.0 32 14   100.12     LegendNANA
23:00 3.4 1.9 90 0.0 34 9   100.14     LegendNANA

Notes on Data Quality.

Legend

  • E = Estimated
  • M = Missing
  • NA = Not Available*
  • [empty] = Indicates an unobserved value
Date modified: